Weather History for KSAR - March, 2014

Change the Weather History Date:

Friday, March 14, 2014

  Actual Average (KBLV) Record (KBLV)
Temperature  
Mean Temperature 57 °F -  
Max Temperature 64 °F 55 °F 84 °F (2012)
Min Temperature 50 °F 32 °F 10 °F (1993)
Degree Days  
Heating Degree Days 8    
Growing Degree Days 7 (Base 50)    
Moisture  
Dew Point 33 °F    
Average Humidity 40    
Maximum Humidity 54    
Minimum Humidity 30    
Precipitation  
Precipitation 0.00 in - - ()
Sea Level Pressure  
Sea Level Pressure 29.90 in    
Wind  
Wind Speed 12 mph (SW)    
Max Wind Speed 22 mph    
Max Gust Speed 31 mph    
Visibility 10 miles    
Events      
Averages and records for this station are not official NWS values.
T = Trace of Precipitation, MM = Missing Value Source: NWS Daily Summary

Daily Weather History Graph

Daily Weather History Graph

Search for Another Location

Airport or City:

Trip Planner

Search our weather history database for the weather conditions in past years. The results will help you decide how hot, cold, wet, or windy it might be!

Date:

Astronomy

Mar. 14, 2014 Rise Set
Actual Time 7:11 AM CDT 7:05 PM CDT
Civil Twilight 6:45 AM CDT 7:31 PM CDT
Nautical Twilight 6:14 AM CDT 8:01 PM CDT
Astronomical Twilight 5:43 AM CDT 8:32 PM CDT
Moon 5:28 PM CDT (3/14) 5:50 AM CDT (3/14)
Length of Visible Light 12h 46m
Length of Day
11h 53m
Waxing Gibbous, 96% of the Moon is Illuminated
Mar 14
Waxing Gibbous
Mar 16
Full
Mar 23
Last Quarter
Mar 30
New
Apr 7
First Quarter

Hourly Weather History & Observations

Time (CDT) Temp. Dew Point Humidity Pressure Visibility Wind Dir Wind Speed Gust Speed Precip Events Conditions
9:35 AM 50.0 °F 33.8 °F 54% 29.91 in 10.0 mi South 13.8 mph 21.9 mph N/A   Clear
9:55 AM 50.0 °F 33.8 °F 54% 29.90 in 10.0 mi South 16.1 mph 25.3 mph N/A   Clear
10:15 AM 51.8 °F 33.8 °F 50% 29.90 in 10.0 mi South 16.1 mph 26.5 mph N/A   Clear
10:35 AM 53.6 °F 33.8 °F 47% 29.89 in 10.0 mi SSW 18.4 mph 27.6 mph N/A   Clear
10:55 AM 53.6 °F 33.8 °F 47% 29.88 in 10.0 mi SSW 21.9 mph 31.1 mph N/A   Clear
11:15 AM 53.6 °F 32.0 °F 44% 29.88 in 10.0 mi SSW 16.1 mph 26.5 mph N/A   Clear
11:35 AM 55.4 °F 33.8 °F 44% 29.88 in 10.0 mi SSW 16.1 mph 21.9 mph N/A   Clear
11:55 AM 55.4 °F 32.0 °F 41% 29.88 in 10.0 mi SSW 13.8 mph 19.6 mph N/A   Clear
12:15 PM 57.2 °F 32.0 °F 38% 29.87 in 10.0 mi SW 15.0 mph 19.6 mph N/A   Clear
12:35 PM 59.0 °F 33.8 °F 39% 29.87 in 10.0 mi SSW 12.7 mph 20.7 mph N/A   Clear
12:55 PM 60.8 °F 32.0 °F 34% 29.86 in 10.0 mi SSW 17.3 mph 26.5 mph N/A   Clear
1:15 PM 60.8 °F 32.0 °F 34% 29.86 in 10.0 mi SW 18.4 mph 26.5 mph N/A   Clear
1:35 PM 60.8 °F 32.0 °F 34% 29.85 in 10.0 mi SW 16.1 mph 28.8 mph N/A   Scattered Clouds
1:55 PM 60.8 °F 32.0 °F 34% 29.85 in 10.0 mi SW 18.4 mph 25.3 mph N/A   Scattered Clouds
2:15 PM 62.6 °F 32.0 °F 32% 29.85 in 10.0 mi WSW 15.0 mph 21.9 mph N/A   Clear
2:35 PM 62.6 °F 32.0 °F 32% 29.84 in 10.0 mi WSW 16.1 mph 21.9 mph N/A   Scattered Clouds
2:55 PM 62.6 °F 32.0 °F 32% 29.84 in 10.0 mi WSW 15.0 mph 24.2 mph N/A   Scattered Clouds
3:15 PM 62.6 °F 32.0 °F 32% 29.84 in 10.0 mi WSW 13.8 mph 21.9 mph N/A   Scattered Clouds
3:35 PM 64.4 °F 33.8 °F 32% 29.84 in 10.0 mi SW 11.5 mph - N/A   Clear
3:55 PM 64.4 °F 32.0 °F 30% 29.84 in 10.0 mi SW 12.7 mph 17.3 mph N/A   Clear
4:15 PM 64.4 °F 33.8 °F 32% 29.84 in 10.0 mi WSW 12.7 mph 18.4 mph N/A   Clear
4:35 PM 64.4 °F 32.0 °F 30% 29.85 in 10.0 mi West 12.7 mph 18.4 mph N/A   Clear
4:55 PM 62.6 °F 32.0 °F 32% 29.84 in 10.0 mi WSW 9.2 mph 17.3 mph N/A   Clear
5:15 PM 64.4 °F 32.0 °F 30% 29.84 in 10.0 mi WSW 9.2 mph - N/A   Clear
5:35 PM 64.4 °F 32.0 °F 30% 29.85 in 10.0 mi WSW 10.4 mph - N/A   Clear
5:55 PM 64.4 °F 33.8 °F 32% 29.86 in 10.0 mi West 12.7 mph 18.4 mph N/A   Clear
6:15 PM 64.4 °F 32.0 °F 30% 29.87 in 10.0 mi West 5.8 mph - N/A   Clear
6:35 PM 62.6 °F 32.0 °F 32% 29.88 in 10.0 mi West 6.9 mph - N/A   Clear
6:55 PM 60.8 °F 32.0 °F 34% 29.89 in 10.0 mi SW 6.9 mph - N/A   Clear
7:15 PM 59.0 °F 33.8 °F 39% 29.90 in 10.0 mi SW 8.1 mph - N/A   Clear
7:35 PM 59.0 °F 33.8 °F 39% 29.91 in 10.0 mi SW 6.9 mph - N/A   Clear
7:55 PM 55.4 °F 33.8 °F 44% 29.92 in 10.0 mi WSW 9.2 mph - N/A   Clear
8:15 PM 57.2 °F 33.8 °F 41% 29.93 in 10.0 mi SW 4.6 mph - N/A   Clear
8:35 PM 55.4 °F 35.6 °F 47% 29.94 in 10.0 mi WSW 5.8 mph - N/A   Clear
8:55 PM 53.6 °F 33.8 °F 47% 29.95 in 10.0 mi Calm Calm - N/A   Clear
9:15 PM 53.6 °F 33.8 °F 47% 29.96 in 10.0 mi Calm Calm - N/A   Clear
9:35 PM 51.8 °F 33.8 °F 50% 29.97 in 10.0 mi Calm Calm - N/A   Clear
9:55 PM 51.8 °F 32.0 °F 47% 29.97 in 10.0 mi SW 3.5 mph - N/A   Clear
10:15 PM 51.8 °F 32.0 °F 47% 29.98 in 10.0 mi WSW 3.5 mph - N/A   Clear
10:35 PM 50.0 °F 32.0 °F 50% 29.99 in 10.0 mi Calm Calm - N/A   Clear
10:55 PM 50.0 °F 32.0 °F 50% 30.00 in 10.0 mi Calm Calm - N/A   Clear
11:15 PM 50.0 °F 30.2 °F 47% 30.00 in 10.0 mi Calm Calm - N/A   Clear
11:35 PM 50.0 °F 30.2 °F 47% 30.01 in 10.0 mi WNW 3.5 mph - N/A   Clear
11:55 PM 50.0 °F 30.2 °F 47% 30.01 in 10.0 mi Calm Calm - N/A   Clear